GFSMW_sfc_rhum_159.txt.gz
RH
26 36 46 44 55 58 64 71 76 83 80 84 85 86 80 78 80 77 76 73 73 68 76 75 71 78 80 82 80 81 77 80 83 85 74 87 84 86 83 85 80 74 76
19 32 49 43 53 58 61 67 71 71 72 75 76 76 77 77 77 77 77 75 73 71 71 74 76 77 82 82 84 85 86 82 80 81 84 91 81 83 83 75 65 78 71
19 30 50 48 56 58 60 63 68 65 67 69 73 79 77 75 78 80 80 77 72 75 77 79 79 85 85 86 85 86 82 84 81 80 81 77 89 83 72 69 71 81 77
33 40 52 55 54 56 58 63 67 66 67 71 72 71 74 73 78 81 82 84 78 79 78 80 84 88 90 87 83 81 83 83 82 81 75 83 82 86 85 74 69 77 73
38 39 54 56 69 62 69 66 69 69 68 72 72 69 73 74 78 83 82 83 85 80 78 82 85 87 89 87 85 86 84 86 82 85 86 85 81 81 84 89 77 79 76
39 39 50 58 67 71 70 68 67 70 70 71 75 74 71 74 79 83 85 88 86 87 84 82 87 88 89 88 88 87 85 84 84 81 82 84 86 84 84 87 86 82 89
40 40 52 61 66 70 70 67 63 67 72 76 74 72 69 74 72 74 81 88 90 92 90 88 88 87 85 84 84 85 84 81 83 80 82 80 82 78 78 82 83 84 87
44 44 44 56 66 67 74 70 69 64 72 77 75 76 70 66 69 71 75 80 85 88 87 88 84 81 76 77 80 82 85 81 81 78 75 79 81 79 80 82 85 85 79
40 41 43 44 52 70 75 74 70 66 68 79 80 76 78 68 72 70 76 76 84 79 85 83 83 80 75 76 77 81 81 81 79 78 75 75 78 83 82 82 82 92 90
41 43 48 50 50 58 73 80 75 70 69 78 82 80 80 67 68 72 81 78 77 76 79 78 75 75 70 68 70 74 72 71 75 74 70 70 74 79 82 80 80 85 92
40 42 42 48 52 59 79 82 77 73 78 80 80 78 74 75 74 74 76 77 80 75 74 70 71 68 69 66 66 70 66 67 68 68 70 70 70 80 81 85 85 86 86
40 40 40 46 52 59 76 77 78 76 74 76 77 80 80 76 74 77 76 82 80 78 70 70 65 64 62 62 62 58 64 68 68 68 68 71 55 67 65 74 70 81 75
33 40 50 56 60 64 69 79 83 79 77 75 76 78 82 80 78 76 76 78 73 73 65 63 63 63 66 63 63 65 68 68 68 70 71 71 70 69 73 68 65 59 50
26 43 58 64 63 64 71 76 83 83 78 73 74 76 78 79 76 75 73 74 67 64 61 66 65 67 63 59 57 64 70 67 74 77 74 72 71 71 70 67 74 64 60
39 52 60 65 66 68 72 71 78 82 77 74 77 80 83 74 75 75 76 73 66 68 67 73 76 79 74 67 71 74 72 68 73 73 66 71 70 70 68 66 73 69 65
42 44 50 58 66 70 73 71 75 83 84 76 80 84 77 74 77 78 80 81 80 82 78 82 86 88 87 85 78 70 64 58 71 71 68 67 71 69 71 70 69 68 71
50 55 62 72 72 76 81 80 82 84 86 86 87 83 83 83 84 90 98 99 97 92 94 96 93 95 97 82 79 76 65 60 66 70 68 52 54 68 66 72 72 71 73
66 71 77 82 85 87 86 84 84 86 92 97 94 95 97 99 99 99 99 99 98 98 98 98 98 97 94 82 86 83 80 82 82 80 79 78 76 69 71 69 74 87 83
74 83 84 89 95 94 91 91 100 100 100 100 100 100 99 99 99 99 99 99 99 99 98 98 98 97 97 80 83 82 86 92 88 78 82 78 85 66 74 79 90 96 96
76 76 93 97 94 97 97 100 100 100 100 100 99 99 99 99 99 99 99 99 99 98 97 98 98 92 96 80 78 85 88 90 89 86 83 69 81 67 75 92 94 95 97
78 77 89 95 99 96 100 100 100 100 100 99 98 98 98 98 98 98 98 98 98 97 97 97 98 97 94 94 79 78 89 90 88 89 91 91 70 74 72 82 94 92 96
84 82 91 92 96 91 96 100 100 100 99 97 96 96 97 98 97 96 98 98 97 97 97 97 98 98 96 85 86 75 79 81 92 93 94 87 66 69 71 85 69 72 95
88 78 90 90 93 89 92 98 99 98 98 96 97 96 96 97 96 97 98 97 97 96 96 96 96 97 97 97 81 94 93 85 92 92 79 67 66 69 76 67 74 98 95
85 75 85 89 94 90 90 93 98 98 94 96 97 97 96 97 98 96 96 96 96 96 95 95 95 96 96 96 97 97 92 85 87 77 89 94 94 93 97 95 94 97 97
84 73 82 87 95 90 92 96 98 94 95 95 96 98 96 96 97 97 95 94 97 93 94 92 91 95 97 96 91 92 95 92 90 91 96 98 99 100 98 98 98 98 97
82 82 87 92 94 95 98 99 96 90 92 95 93 94 95 96 95 93 97 98 96 88 79 79 85 88 80 73 76 79 78 79 79 95 100 100 100 98 98 97 96 96 92

GFSMW_sfc_rhum_162.txt.gz
RH
49 49 57 56 59 67 74 76 81 80 77 79 78 85 84 87 86 82 79 76 74 75 78 78 82 83 82 84 80 82 77 82 86 79 92 93 93 90 91 88 85 82 80
29 54 61 58 63 69 70 72 75 80 77 74 80 82 82 84 82 82 80 75 73 74 74 77 82 85 87 88 88 85 89 86 86 79 95 94 84 70 64 78 78 79 71
49 52 59 62 64 68 75 80 83 82 84 82 79 86 83 83 84 85 85 78 73 77 77 79 85 88 90 90 89 88 86 87 88 86 86 95 94 83 66 79 81 83 79
54 67 65 75 84 89 90 88 84 82 79 74 77 77 72 77 83 84 86 85 79 80 80 82 86 88 90 88 89 83 88 88 88 83 76 83 85 95 84 74 81 78 74
66 70 75 80 88 89 93 90 86 82 80 76 71 73 77 78 86 87 84 86 87 81 81 86 87 90 89 87 85 86 86 85 87 85 91 86 84 86 88 96 98 85 82
63 66 68 77 90 93 93 94 86 78 75 75 78 76 72 77 83 87 87 91 91 89 87 86 90 90 90 87 88 87 84 86 86 85 84 85 83 82 84 90 90 96 91
59 61 62 66 70 83 85 83 82 79 76 75 77 76 75 78 78 82 83 90 92 94 92 91 91 89 89 86 86 85 84 83 84 84 87 81 80 77 78 83 90 94 93
49 62 69 69 63 63 66 69 73 76 78 80 78 74 72 77 75 77 80 82 85 90 90 89 84 83 83 85 86 88 87 87 87 80 79 77 80 77 76 79 82 90 94
51 51 54 62 63 67 72 73 69 69 80 82 82 81 81 79 81 80 80 84 86 82 87 83 82 80 80 80 82 86 83 83 83 80 78 78 80 80 79 80 80 85 90
50 50 50 50 58 66 73 80 76 71 73 81 83 83 86 80 80 79 78 80 81 82 84 83 81 76 76 76 77 79 76 76 80 76 76 77 77 76 79 81 82 84 88
50 51 53 58 62 76 79 82 76 71 74 80 86 86 86 81 82 80 81 79 80 78 77 78 78 74 71 69 73 73 72 72 74 72 73 77 77 80 81 84 83 84 84
46 45 57 62 70 77 78 78 80 76 78 81 83 82 79 81 86 89 86 82 79 76 74 74 72 73 70 70 71 65 69 72 76 75 75 74 56 71 77 79 82 88 83
39 51 64 67 68 74 78 79 84 81 76 78 82 84 83 80 80 81 82 80 80 76 71 67 69 70 71 73 76 79 78 83 86 83 79 80 74 81 71 71 68 63 57
24 49 70 66 68 71 76 83 85 86 85 82 86 88 89 86 85 78 80 80 75 70 68 67 68 74 73 71 74 77 84 84 89 90 87 77 76 76 68 62 65 57 64
40 61 69 72 73 76 77 77 81 86 88 88 89 89 91 88 87 84 81 76 70 69 70 80 82 79 77 70 83 83 86 90 94 85 78 75 72 72 64 61 65 61 62
56 59 64 68 71 74 77 76 78 82 85 88 89 91 86 81 83 85 80 82 84 87 88 89 85 86 85 86 89 89 90 93 76 81 77 73 76 74 74 73 68 64 65
59 67 76 81 82 81 83 81 83 85 86 89 90 92 89 90 88 89 89 94 97 98 98 98 96 98 99 95 99 98 93 86 84 78 68 58 62 73 72 74 74 72 71
73 75 81 82 89 91 89 87 88 88 90 94 96 95 95 97 99 100 100 99 99 99 98 98 98 98 100 100 100 97 94 90 86 79 77 75 73 59 61 62 71 84 80
85 89 90 96 95 97 95 96 98 100 100 100 100 100 100 100 99 98 99 99 99 98 98 97 98 98 99 99 96 94 90 95 92 77 80 80 86 65 66 75 90 95 97
84 88 94 96 93 97 99 100 100 100 100 100 100 100 100 99 98 98 99 99 98 98 97 98 98 97 98 96 94 93 94 92 92 89 86 75 84 72 75 92 92 95 98
87 88 92 98 99 95 100 100 100 100 100 100 100 100 100 99 98 98 98 98 97 98 98 97 98 98 97 98 96 88 91 93 90 90 94 91 71 71 76 81 93 90 97
86 89 92 94 94 94 96 100 100 100 100 100 99 98 98 98 98 96 97 98 97 97 97 97 97 98 98 97 91 88 87 82 90 93 93 90 70 67 72 86 75 78 95
96 89 92 93 95 94 95 98 100 99 99 98 98 98 97 97 98 97 97 97 97 96 96 96 96 97 98 98 89 80 78 78 91 94 81 68 68 69 78 70 72 95 96
96 88 89 94 94 94 93 92 99 99 96 97 98 98 97 98 98 98 96 94 96 96 95 96 96 97 97 98 98 96 92 84 87 80 90 92 97 95 97 94 96 97 96
92 84 89 91 95 94 94 96 99 95 96 97 97 97 96 97 98 96 98 94 97 91 94 96 94 96 98 97 92 92 94 93 94 94 96 97 99 100 99 99 98 99 97
88 89 91 92 94 95 98 99 96 91 92 94 95 97 93 96 96 94 97 98 96 97 96 89 86 89 81 84 85 86 83 81 84 93 97 100 100 99 99 98 98 97 96

GFSMW_sfc_rhum_168.txt.gz
RH
46 49 59 88 93 97 98 95 92 95 94 97 96 96 98 98 96 89 79 79 77 82 82 80 81 81 81 82 81 84 80 81 95 95 79 78 81 86 85 80 82 76 75
72 72 79 91 94 98 97 95 95 94 93 91 95 95 92 86 84 83 80 77 75 78 77 79 82 82 83 83 83 81 83 83 90 97 95 88 81 87 84 84 79 75 68
92 93 96 98 98 99 98 96 94 92 93 90 90 92 86 81 80 80 80 78 76 76 77 79 84 85 85 85 85 85 80 79 88 89 92 98 96 86 80 82 78 71 73
92 97 99 97 98 98 97 95 93 93 93 92 94 94 95 96 93 90 80 79 78 79 81 81 84 85 87 86 85 83 86 80 82 84 76 86 85 88 96 80 74 68 67
95 99 99 95 97 98 97 95 95 94 96 94 96 97 90 91 88 82 80 81 83 82 82 85 88 88 88 86 84 82 83 85 83 84 81 80 84 83 92 96 88 74 71
93 96 97 98 99 97 96 94 93 93 95 93 89 85 79 76 80 84 86 88 86 88 87 84 89 90 89 85 84 83 82 85 82 82 83 80 83 82 87 91 88 85 80
90 94 96 98 98 97 97 96 95 96 93 89 83 83 76 76 75 79 83 85 89 92 91 91 91 90 85 86 85 84 83 82 82 82 82 82 80 80 82 86 90 88 78
82 88 92 94 95 95 95 94 94 92 89 88 83 82 80 79 76 77 84 85 88 89 90 93 92 88 87 87 86 87 87 86 86 82 80 81 81 79 79 85 88 94 85
72 82 85 88 90 92 93 93 92 90 88 88 90 89 88 84 82 82 85 86 87 84 91 91 91 90 88 84 85 87 85 84 84 84 81 80 82 82 80 81 81 87 94
60 66 72 79 83 87 88 89 88 86 86 88 91 90 90 88 86 86 85 87 89 87 91 90 85 85 84 84 82 83 86 83 86 84 82 78 80 81 82 82 81 81 86
60 57 57 65 74 81 86 87 87 85 84 85 87 89 90 89 89 90 90 90 88 91 92 90 87 87 83 82 82 81 82 81 81 79 78 80 78 84 84 85 84 81 81
44 50 54 60 69 81 84 86 87 87 84 85 85 86 89 91 93 93 92 92 93 93 93 92 88 84 84 86 80 77 77 78 82 81 82 82 70 84 85 86 86 83 79
34 30 48 58 69 79 84 85 84 84 83 84 86 87 87 88 90 91 91 93 93 94 92 86 83 80 80 79 80 81 82 83 85 84 83 85 86 90 85 86 83 78 64
32 36 37 54 69 81 86 84 84 86 88 88 87 87 88 88 90 89 90 93 94 94 92 88 84 80 78 78 78 79 84 85 86 87 83 82 80 78 79 72 70 77 68
35 34 32 48 76 79 78 81 82 85 88 88 88 90 90 90 89 89 91 93 93 91 87 83 83 82 82 77 86 84 91 90 94 92 84 86 91 96 83 69 62 67 62
40 41 46 72 80 80 82 84 86 88 88 88 89 90 91 92 92 92 93 92 92 91 89 91 90 92 90 90 93 94 94 90 91 92 93 92 94 96 81 66 60 58 60
75 77 83 87 91 93 92 92 94 92 92 91 90 91 92 91 93 93 93 96 97 97 100 100 100 100 100 98 100 96 92 93 92 90 86 86 90 90 84 81 78 74 71
82 84 89 92 99 98 99 98 98 99 98 96 98 98 96 99 99 99 99 99 100 99 99 99 99 99 100 100 98 94 96 96 96 96 95 93 88 88 74 68 78 86 83
87 89 93 96 94 96 98 98 100 100 100 100 100 99 100 100 100 100 100 100 98 98 98 98 99 99 100 97 94 94 96 97 97 94 95 89 90 83 73 77 91 94 94
86 87 91 94 95 96 95 100 100 100 100 100 100 100 100 100 100 100 99 99 98 99 97 99 99 98 99 95 94 96 95 96 95 96 94 82 89 73 77 92 93 96 97
83 87 92 91 99 96 99 100 99 99 100 100 100 100 100 100 100 100 98 98 98 98 98 98 99 99 98 99 94 94 97 96 95 96 96 94 84 85 83 85 93 92 94
85 85 91 93 93 95 97 99 99 100 100 100 100 100 100 99 99 98 98 98 98 98 99 98 99 99 98 96 94 95 94 94 96 96 96 94 82 81 80 87 80 81 90
95 96 94 94 93 95 95 95 97 100 100 99 99 99 99 98 97 97 98 98 98 98 98 98 99 99 99 98 94 94 94 94 97 97 87 78 79 76 80 75 78 89 92
94 93 96 96 95 96 96 88 100 100 99 99 99 99 98 99 98 95 95 98 98 97 96 97 98 99 98 97 98 97 97 96 96 92 94 93 96 94 96 87 91 93 93
96 97 96 96 94 95 95 96 98 99 99 98 98 98 96 97 98 98 97 94 98 91 94 96 95 97 98 97 93 94 96 96 95 95 96 96 97 97 97 96 95 95 93
94 98 95 95 95 95 98 96 99 96 96 96 96 97 96 98 97 98 98 89 90 91 91 91 94 98 95 92 94 84 78 85 88 92 96 97 97 96 95 95 94 92 91

GFSMW_sfc_rhum_171.txt.gz
RH
52 58 69 65 73 81 88 92 96 97 96 97 97 92 92 96 97 93 80 70 68 72 71 65 65 67 63 65 67 65 66 70 72 72 82 85 85 85 82 79 74 72 68
59 69 77 83 88 93 93 90 94 94 93 90 87 88 82 82 82 83 78 74 73 76 70 71 71 71 68 69 68 67 62 61 75 71 75 92 91 89 84 77 71 70 61
71 75 89 91 95 96 96 94 95 94 93 90 86 84 87 91 91 89 84 78 73 71 71 71 72 73 68 63 68 68 66 60 74 75 68 84 84 89 78 80 71 71 68
69 83 87 91 96 97 94 92 93 92 90 86 90 92 94 96 94 92 83 75 73 71 70 71 73 73 73 70 69 67 68 63 62 69 67 72 66 74 94 77 70 65 64
76 84 90 90 93 90 91 92 91 91 84 80 83 88 89 87 78 86 82 80 80 74 71 72 73 72 70 71 71 71 71 65 60 58 69 69 65 68 75 93 85 69 60
71 76 84 86 86 87 87 90 91 80 78 78 79 81 83 88 66 65 66 65 69 64 68 71 73 74 73 75 70 70 72 70 69 63 64 66 66 65 69 76 80 74 68
67 70 73 75 79 81 83 80 75 74 75 77 76 75 72 68 64 62 60 63 62 64 68 72 74 69 72 73 69 70 72 68 68 70 64 61 62 59 61 66 72 73 70
62 66 71 74 74 77 76 76 74 72 75 74 72 69 65 60 58 59 57 60 60 60 67 70 71 71 71 71 70 66 66 69 68 70 68 59 58 59 58 62 70 76 67
54 58 62 68 72 74 76 78 73 69 70 71 71 69 68 68 64 66 66 62 64 60 67 69 70 72 73 71 72 65 69 67 68 68 67 59 58 59 58 60 61 66 78
46 45 46 53 59 66 68 76 76 70 66 69 70 69 69 69 68 68 68 68 66 68 70 70 71 72 72 71 70 68 69 69 70 60 64 60 58 57 57 58 62 64 65
39 36 36 38 48 54 60 69 72 70 68 68 69 73 71 71 70 69 67 67 69 68 71 70 70 70 70 69 69 68 68 66 66 68 63 61 59 54 55 63 62 62 60
35 31 29 31 38 46 53 58 69 70 68 65 67 73 73 72 72 72 72 74 72 72 70 71 71 73 73 71 73 74 69 68 66 64 65 65 51 60 59 57 63 60 59
29 27 26 27 31 35 47 58 66 67 67 65 66 69 70 69 70 70 70 71 72 72 73 74 74 72 71 70 73 68 80 72 74 73 66 66 64 68 64 66 60 54 51
25 24 26 29 31 37 48 64 67 69 68 68 68 71 71 71 70 70 70 72 72 72 72 74 73 72 72 72 74 76 81 78 75 77 71 68 67 68 66 63 64 68 51
29 29 30 33 36 46 61 62 64 68 66 67 70 75 74 73 74 75 75 75 76 72 72 74 73 72 72 73 77 79 85 80 85 77 69 76 82 88 84 66 65 72 53
31 43 54 60 62 65 62 67 70 72 68 69 73 74 75 73 77 77 77 77 77 75 74 75 74 76 76 90 87 89 92 94 82 81 81 79 84 86 88 85 70 65 61
49 59 69 73 75 76 77 76 78 76 74 76 75 77 77 79 81 78 80 87 88 86 94 97 99 100 99 93 93 95 96 85 78 76 71 71 80 83 80 93 88 83 84
62 68 70 76 85 79 88 93 95 96 99 98 99 97 95 99 98 99 100 100 100 100 100 100 100 100 100 98 98 98 96 93 92 90 88 84 82 81 86 81 81 83 80
66 72 73 77 76 80 89 94 100 100 100 100 100 100 100 100 100 100 100 100 100 100 100 100 100 100 100 98 94 93 94 99 95 87 87 80 88 86 78 69 81 89 91
68 72 81 83 78 86 87 96 100 100 100 100 100 100 100 100 100 100 100 100 100 100 100 100 100 100 100 94 93 94 89 94 89 90 88 76 81 78 80 85 87 92 93
70 71 76 80 97 87 95 100 100 100 100 100 100 100 100 100 100 100 100 100 100 100 100 100 100 100 100 99 94 93 98 92 86 85 86 83 78 77 79 81 87 88 86
72 68 74 78 80 78 90 99 100 100 100 100 100 100 100 100 100 100 100 100 99 98 99 100 99 100 100 95 92 91 91 89 89 90 91 94 84 79 80 84 82 83 84
68 67 67 72 76 76 74 84 92 100 100 100 100 100 100 100 100 100 100 95 98 93 95 93 94 95 100 100 92 92 93 94 94 92 89 81 78 78 81 79 80 84 86
80 67 78 77 77 77 78 77 93 100 100 100 100 100 100 100 99 86 83 82 88 89 88 90 90 91 90 94 94 94 94 95 94 91 96 90 88 86 85 84 85 86 86
79 75 80 78 76 77 80 80 96 100 100 100 100 100 96 96 94 88 83 80 87 78 83 87 85 92 92 94 91 93 95 95 94 93 94 92 89 92 92 88 88 88 84
73 78 79 80 78 79 85 92 94 94 93 98 96 93 89 87 84 82 89 88 86 84 84 84 84 93 87 92 94 93 88 87 87 87 90 91 88 89 87 85 85 83 81